Location: Zilina
(0.0000°N, 18.7333°E)
Time: 11:22:15
(UTC+01:00)

USA 229 DEB - Pass Details

Date: 19 February 2019
Orbit: 1016 x 1197 km, 63.4° (Epoch: 24 March)

Event Time Altitude Azimuth Distance (km) Brightness Sun altitude
Rises 19:06:11 0° 330° (NNW) 4,054 7.0 -16.5°
Reaches altitude 10° 19:08:55 10° 327° (NNW) 3,105 6.4 -17.2°
Maximum altitude 19:16:19 64° 248° (WSW) 1,309 4.4 -19.0°
Drops below altitude 10° 19:23:45 10° 167° (SSE) 3,114 6.1 -20.8°
Sets 19:26:30 0° 164° (SSE) 4,066 6.7 -21.5°
